Time,TemperatureF,DewpointF,PressureIn,WindDirection,WindDirectionDegrees,WindSpeedMPH,WindSpeedGustMPH,Humidity,HourlyPrecipIn,Conditions,Clouds,dailyrainin,SoftwareType,DateUTC
2013-03-21 00:05:00,51.6,50.5,30.15,North,5,1.0,3.6,96,0.00,,,-99.99,FreeWX-Wi 1.01,2013-03-21 07:05:00,
2013-03-21 00:15:00,51.4,50.4,30.15,North,355,1.0,3.6,96,0.00,,,-99.99,FreeWX-Wi 1.01,2013-03-21 07:15:00,
2013-03-21 00:25:00,51.3,49.8,30.15,North,-999,0.0,4.0,95,0.00,,,-99.99,FreeWX-Wi 1.01,2013-03-21 07:25:00,
2013-03-21 00:35:00,50.5,48.9,30.15,NNW,345,1.0,5.8,94,0.00,,,-99.99,FreeWX-Wi 1.01,2013-03-21 07:35:00,
2013-03-21 00:45:00,50.4,48.2,30.15,North,353,2.0,5.8,92,0.00,,,-99.99,FreeWX-Wi 1.01,2013-03-21 07:45:00,
2013-03-21 00:55:00,50.0,47.5,30.15,North,354,2.0,6.3,91,0.00,,,-99.99,FreeWX-Wi 1.01,2013-03-21 07:55:00,
2013-03-21 01:05:00,49.8,46.9,30.15,North,355,2.0,8.1,90,0.00,,,-99.99,FreeWX-Wi 1.01,2013-03-21 08:05:00,
2013-03-21 01:15:00,49.6,46.8,30.15,NNW,347,2.0,6.3,90,0.00,,,-99.99,FreeWX-Wi 1.01,2013-03-21 08:15:00,
2013-03-21 01:25:00,49.6,46.6,30.12,NNW,344,2.0,6.3,89,0.00,,,-99.99,FreeWX-Wi 1.01,2013-03-21 08:25:00,
2013-03-21 01:35:00,49.6,46.6,30.12,NNW,335,3.0,8.7,89,0.00,,,-99.99,FreeWX-Wi 1.01,2013-03-21 08:35:00,
2013-03-21 01:45:00,49.5,46.0,30.12,NNW,335,4.0,7.6,88,0.00,,,-99.99,FreeWX-Wi 1.01,2013-03-21 08:45:00,
2013-03-21 01:55:00,49.3,45.5,30.12,NNW,337,4.0,6.3,87,0.00,,,-99.99,FreeWX-Wi 1.01,2013-03-21 08:55:00,
2013-03-21 02:05:00,49.1,45.1,30.12,NNW,340,3.0,4.9,86,0.00,,,-99.99,FreeWX-Wi 1.01,2013-03-21 09:05:00,
2013-03-21 02:15:00,48.9,45.0,30.12,NNW,343,2.0,6.7,86,0.00,,,-99.99,FreeWX-Wi 1.01,2013-03-21 09:15:00,
2013-03-21 02:25:00,48.7,44.4,30.12,North,-999,0.0,5.4,85,0.00,,,-99.99,FreeWX-Wi 1.01,2013-03-21 09:25:00,
2013-03-21 02:35:00,48.6,43.9,30.12,NNW,348,1.0,7.6,84,0.00,,,-99.99,FreeWX-Wi 1.01,2013-03-21 09:35:00,
2013-03-21 02:45:00,48.4,42.4,30.12,NNW,344,2.0,6.3,80,0.00,,,-99.99,FreeWX-Wi 1.01,2013-03-21 09:45:00,
2013-03-21 02:55:00,48.2,41.0,30.12,NNW,337,3.0,6.3,76,0.00,,,-99.99,FreeWX-Wi 1.01,2013-03-21 09:55:00,
2013-03-21 03:05:00,48.0,41.2,30.12,NNW,336,2.0,5.8,77,0.00,,,-99.99,FreeWX-Wi 1.01,2013-03-21 10:05:00,
2013-03-21 03:15:00,48.0,41.5,30.12,NNW,346,2.0,4.9,78,0.00,,,-99.99,FreeWX-Wi 1.01,2013-03-21 10:15:00,
2013-03-21 03:25:00,47.7,41.2,30.12,NNE,23,1.0,4.0,78,0.00,,,-99.99,FreeWX-Wi 1.01,2013-03-21 10:25:00,
2013-03-21 03:35:00,47.5,41.0,30.12,North,-999,0.0,5.8,78,0.00,,,-99.99,FreeWX-Wi 1.01,2013-03-21 10:35:00,
2013-03-21 03:45:00,47.5,41.0,30.12,North,-999,0.0,4.0,78,0.00,,,-99.99,FreeWX-Wi 1.01,2013-03-21 10:45:00,
2013-03-21 03:55:00,47.7,41.5,30.12,North,-999,0.0,4.9,79,0.00,,,-99.99,FreeWX-Wi 1.01,2013-03-21 10:55:00,
2013-03-21 04:05:00,47.7,41.7,30.12,North,-999,0.0,2.7,80,0.00,,,-99.99,FreeWX-Wi 1.01,2013-03-21 11:05:00,
2013-03-21 04:15:00,47.8,41.9,30.12,North,-999,0.0,2.2,80,0.00,,,-99.99,FreeWX-Wi 1.01,2013-03-21 11:15:00,
2013-03-21 04:25:00,47.7,41.5,30.12,North,-999,0.0,3.6,79,0.00,,,-99.99,FreeWX-Wi 1.01,2013-03-21 11:25:00,
2013-03-21 04:35:00,47.7,41.2,30.12,North,-999,0.0,4.0,78,0.00,,,-99.99,FreeWX-Wi 1.01,2013-03-21 11:35:00,
2013-03-21 04:45:00,47.5,41.0,30.12,North,-999,0.0,3.6,78,0.00,,,-99.99,FreeWX-Wi 1.01,2013-03-21 11:45:00,
2013-03-21 04:55:00,47.3,40.8,30.12,North,-999,0.0,4.0,78,0.00,,,-99.99,FreeWX-Wi 1.01,2013-03-21 11:55:00,
2013-03-21 05:05:00,47.3,41.2,30.12,North,-999,0.0,3.6,79,0.00,,,-99.99,FreeWX-Wi 1.01,2013-03-21 12:05:00,
2013-03-21 05:15:00,47.3,41.2,30.12,North,-999,0.0,3.6,79,0.00,,,-99.99,FreeWX-Wi 1.01,2013-03-21 12:15:00,
2013-03-21 05:25:00,47.1,41.0,30.12,North,-999,0.0,4.0,79,0.00,,,-99.99,FreeWX-Wi 1.01,2013-03-21 12:25:00,
2013-03-21 05:35:00,47.1,41.0,30.12,North,-999,0.0,4.0,79,0.00,,,-99.99,FreeWX-Wi 1.01,2013-03-21 12:35:00,
2013-03-21 05:45:00,46.9,40.8,30.12,North,-999,0.0,4.0,79,0.00,,,-99.99,FreeWX-Wi 1.01,2013-03-21 12:45:00,
2013-03-21 05:55:00,46.9,40.8,30.12,North,-999,0.0,0.0,79,0.00,,,-99.99,FreeWX-Wi 1.01,2013-03-21 12:55:00,
2013-03-21 06:05:00,46.9,40.8,30.12,North,-999,0.0,3.6,79,0.00,,,-99.99,FreeWX-Wi 1.01,2013-03-21 13:05:00,
2013-03-21 06:15:00,46.8,40.6,30.12,North,-999,0.0,0.0,79,0.00,,,-99.99,FreeWX-Wi 1.01,2013-03-21 13:15:00,
2013-03-21 06:25:00,46.8,40.6,30.12,North,-999,0.0,0.0,79,0.00,,,-99.99,FreeWX-Wi 1.01,2013-03-21 13:25:00,
2013-03-21 06:35:00,46.8,40.6,30.12,North,-999,0.0,0.0,79,0.00,,,-99.99,FreeWX-Wi 1.01,2013-03-21 13:35:00,
2013-03-21 06:45:00,46.8,40.6,30.12,North,-999,0.0,3.6,79,0.00,,,-99.99,FreeWX-Wi 1.01,2013-03-21 13:45:00,
2013-03-21 06:55:00,46.8,40.6,30.12,North,-999,0.0,0.0,79,0.00,,,-99.99,FreeWX-Wi 1.01,2013-03-21 13:55:00,
2013-03-21 07:05:00,46.4,40.3,30.12,North,-999,0.0,0.0,79,0.00,,,-99.99,FreeWX-Wi 1.01,2013-03-21 14:05:00,
2013-03-21 07:15:00,46.2,40.1,30.12,North,-999,0.0,0.0,79,0.00,,,-99.99,FreeWX-Wi 1.01,2013-03-21 14:15:00,
2013-03-21 07:25:00,46.2,40.5,30.12,North,-999,0.0,0.0,80,0.00,,,-99.99,FreeWX-Wi 1.01,2013-03-21 14:25:00,
2013-03-21 07:35:00,46.2,40.5,30.12,North,-999,0.0,0.0,80,0.00,,,-99.99,FreeWX-Wi 1.01,2013-03-21 14:35:00,
2013-03-21 07:45:00,46.6,41.0,30.12,North,-999,0.0,0.0,81,0.00,,,-99.99,FreeWX-Wi 1.01,2013-03-21 14:45:00,
2013-03-21 07:55:00,46.8,41.2,30.12,North,-999,0.0,0.0,81,0.00,,,-99.99,FreeWX-Wi 1.01,2013-03-21 14:55:00,
2013-03-21 08:05:00,46.8,41.2,30.12,North,-999,0.0,0.0,81,0.00,,,-99.99,FreeWX-Wi 1.01,2013-03-21 15:05:00,
2013-03-21 08:15:00,47.1,41.5,30.12,North,-999,0.0,0.0,81,0.00,,,-99.99,FreeWX-Wi 1.01,2013-03-21 15:15:00,
2013-03-21 08:25:00,47.7,42.1,30.12,North,-999,0.0,3.1,81,0.00,,,-99.99,FreeWX-Wi 1.01,2013-03-21 15:25:00,
2013-03-21 08:35:00,48.0,42.1,30.12,North,-999,0.0,5.4,80,0.00,,,-99.99,FreeWX-Wi 1.01,2013-03-21 15:35:00,
2013-03-21 08:45:00,48.6,42.1,30.12,NE,55,1.0,5.8,78,0.00,,,-99.99,FreeWX-Wi 1.01,2013-03-21 15:45:00,
2013-03-21 08:55:00,48.9,42.4,30.12,ENE,64,2.0,5.8,78,0.00,,,-99.99,FreeWX-Wi 1.01,2013-03-21 15:55:00,
2013-03-21 09:05:00,49.3,42.4,30.12,ENE,75,2.0,5.4,77,0.00,,,-99.99,FreeWX-Wi 1.01,2013-03-21 16:05:00,
2013-03-21 09:15:00,49.6,42.8,30.12,ESE,102,2.0,8.3,77,0.00,,,-99.99,FreeWX-Wi 1.01,2013-03-21 16:15:00,
2013-03-21 09:25:00,50.0,42.8,30.12,ESE,115,2.0,6.3,76,0.00,,,-99.99,FreeWX-Wi 1.01,2013-03-21 16:25:00,
2013-03-21 09:35:00,50.2,42.6,30.12,ESE,106,2.0,6.3,75,0.00,,,-99.99,FreeWX-Wi 1.01,2013-03-21 16:35:00,
2013-03-21 09:45:00,50.5,42.3,30.12,East,87,3.0,6.3,73,0.00,,,-99.99,FreeWX-Wi 1.01,2013-03-21 16:45:00,
2013-03-21 09:55:00,50.9,42.3,30.12,East,87,3.0,5.8,72,0.00,,,-99.99,FreeWX-Wi 1.01,2013-03-21 16:55:00,
2013-03-21 10:05:00,51.3,42.6,30.12,ESE,102,3.0,6.3,72,0.00,,,-99.99,FreeWX-Wi 1.01,2013-03-21 17:05:00,
2013-03-21 10:15:00,51.8,42.3,30.12,ESE,104,2.0,5.4,70,0.00,,,-99.99,FreeWX-Wi 1.01,2013-03-21 17:15:00,
2013-03-21 10:25:00,52.3,41.4,30.15,East,87,2.0,5.8,66,0.00,,,-99.99,FreeWX-Wi 1.01,2013-03-21 17:25:00,
2013-03-21 10:35:00,52.9,39.4,30.15,ENE,66,2.0,5.8,60,0.00,,,-99.99,FreeWX-Wi 1.01,2013-03-21 17:35:00,
2013-03-21 10:45:00,53.1,37.8,30.12,ENE,59,2.0,5.8,56,0.00,,,-99.99,FreeWX-Wi 1.01,2013-03-21 17:45:00,
2013-03-21 10:55:00,54.1,36.9,30.15,ENE,65,2.0,6.3,52,0.00,,,-99.99,FreeWX-Wi 1.01,2013-03-21 17:55:00,
2013-03-21 11:05:00,54.5,37.8,30.15,ENE,65,3.0,7.6,53,0.00,,,-99.99,FreeWX-Wi 1.01,2013-03-21 18:05:00,
2013-03-21 11:15:00,55.2,36.9,30.15,ENE,62,3.0,7.2,50,0.00,,,-99.99,FreeWX-Wi 1.01,2013-03-21 18:15:00,
2013-03-21 11:25:00,56.1,38.7,30.15,ENE,64,3.0,7.6,52,0.00,,,-99.99,FreeWX-Wi 1.01,2013-03-21 18:25:00,
2013-03-21 11:35:00,56.5,37.6,30.15,NE,52,3.0,7.6,49,0.00,,,-99.99,FreeWX-Wi 1.01,2013-03-21 18:35:00,
2013-03-21 11:45:00,56.8,37.4,30.15,NE,40,3.0,6.3,48,0.00,,,-99.99,FreeWX-Wi 1.01,2013-03-21 18:45:00,
2013-03-21 11:55:00,57.6,36.9,30.15,NE,38,2.0,5.4,46,0.00,,,-99.99,FreeWX-Wi 1.01,2013-03-21 18:55:00,
2013-03-21 12:05:00,57.9,36.7,30.15,NE,49,2.0,5.8,45,0.00,,,-99.99,FreeWX-Wi 1.01,2013-03-21 19:05:00,
2013-03-21 12:15:00,58.3,36.5,30.12,NE,52,2.0,8.1,44,0.00,,,-99.99,FreeWX-Wi 1.01,2013-03-21 19:15:00,
2013-03-21 12:25:00,58.5,35.4,30.12,North,11,3.0,7.6,42,0.00,,,-99.99,FreeWX-Wi 1.01,2013-03-21 19:25:00,
2013-03-21 12:35:00,58.8,37.6,30.12,North,349,3.0,6.3,45,0.00,,,-99.99,FreeWX-Wi 1.01,2013-03-21 19:35:00,
2013-03-21 12:45:00,59.4,36.9,30.12,North,351,3.0,7.6,43,0.00,,,-99.99,FreeWX-Wi 1.01,2013-03-21 19:45:00,
2013-03-21 12:55:00,59.9,36.7,30.12,NNE,32,3.0,7.6,42,0.00,,,-99.99,FreeWX-Wi 1.01,2013-03-21 19:55:00,
2013-03-21 13:05:00,60.1,37.6,30.12,NNE,16,3.0,6.3,43,0.00,,,-99.99,FreeWX-Wi 1.01,2013-03-21 20:05:00,
2013-03-21 13:15:00,60.3,38.3,30.12,North,9,3.0,6.3,44,0.00,,,-99.99,FreeWX-Wi 1.01,2013-03-21 20:15:00,
2013-03-21 13:25:00,60.3,38.3,30.12,NNW,337,3.0,6.3,44,0.00,,,-99.99,FreeWX-Wi 1.01,2013-03-21 20:25:00,
2013-03-21 13:35:00,60.3,38.3,30.12,NNW,345,3.0,8.7,44,0.00,,,-99.99,FreeWX-Wi 1.01,2013-03-21 20:35:00,
2013-03-21 13:45:00,61.2,37.9,30.12,North,353,3.0,6.3,42,0.00,,,-99.99,FreeWX-Wi 1.01,2013-03-21 20:45:00,
2013-03-21 13:55:00,61.5,37.0,30.12,North,4,4.0,7.6,40,0.00,,,-99.99,FreeWX-Wi 1.01,2013-03-21 20:55:00,
2013-03-21 14:05:00,61.2,36.7,30.12,NNW,347,3.0,7.2,40,0.00,,,-99.99,FreeWX-Wi 1.01,2013-03-21 21:05:00,
2013-03-21 14:15:00,61.5,36.3,30.09,NNW,343,3.0,7.6,39,0.00,,,-99.99,FreeWX-Wi 1.01,2013-03-21 21:15:00,
2013-03-21 14:25:00,61.2,36.7,30.09,NNW,342,3.0,8.1,40,0.00,,,-99.99,FreeWX-Wi 1.01,2013-03-21 21:25:00,
2013-03-21 14:35:00,61.0,35.8,30.09,North,350,3.0,8.3,39,0.00,,,-99.99,FreeWX-Wi 1.01,2013-03-21 21:35:00,
2013-03-21 14:45:00,61.0,36.5,30.09,North,2,4.0,8.1,40,0.00,,,-99.99,FreeWX-Wi 1.01,2013-03-21 21:45:00,
2013-03-21 14:55:00,60.6,35.6,30.09,North,351,4.0,8.3,39,0.00,,,-99.99,FreeWX-Wi 1.01,2013-03-21 21:55:00,
2013-03-21 15:05:00,60.3,35.2,30.09,North,349,4.0,8.1,39,0.00,,,-99.99,FreeWX-Wi 1.01,2013-03-21 22:05:00,
2013-03-21 15:15:00,60.1,35.6,30.06,NNW,341,4.0,8.1,40,0.00,,,-99.99,FreeWX-Wi 1.01,2013-03-21 22:15:00,
2013-03-21 15:25:00,59.7,35.4,30.06,NNW,340,4.0,7.6,40,0.00,,,-99.99,FreeWX-Wi 1.01,2013-03-21 22:25:00,
2013-03-21 15:35:00,60.1,35.6,30.06,NNW,342,4.0,5.8,40,0.00,,,-99.99,FreeWX-Wi 1.01,2013-03-21 22:35:00,
2013-03-21 15:45:00,60.1,35.6,30.06,NNW,336,4.0,8.3,40,0.00,,,-99.99,FreeWX-Wi 1.01,2013-03-21 22:45:00,
2013-03-21 15:55:00,59.7,34.7,30.06,NNW,341,4.0,8.3,39,0.00,,,-99.99,FreeWX-Wi 1.01,2013-03-21 22:55:00,
2013-03-21 16:05:00,59.2,34.9,30.06,NNW,335,5.0,11.0,40,0.00,,,-99.99,FreeWX-Wi 1.01,2013-03-21 23:05:00,
2013-03-21 16:15:00,59.4,35.1,30.06,NNW,342,5.0,8.7,40,0.00,,,-99.99,FreeWX-Wi 1.01,2013-03-21 23:15:00,
2013-03-21 16:25:00,59.5,35.2,30.06,NNW,342,4.0,8.7,40,0.00,,,-99.99,FreeWX-Wi 1.01,2013-03-21 23:25:00,
2013-03-21 16:35:00,59.2,34.9,30.06,NNW,341,4.0,10.5,40,0.00,,,-99.99,FreeWX-Wi 1.01,2013-03-21 23:35:00,
2013-03-21 16:45:00,59.2,36.7,30.06,NNW,339,5.0,9.6,43,0.00,,,-99.99,FreeWX-Wi 1.01,2013-03-21 23:45:00,
2013-03-21 16:55:00,58.8,35.8,30.06,NNW,333,5.0,8.3,42,0.00,,,-99.99,FreeWX-Wi 1.01,2013-03-21 23:55:00,
2013-03-21 17:05:00,58.8,37.0,30.06,NNW,331,5.0,10.1,44,0.00,,,-99.99,FreeWX-Wi 1.01,2013-03-22 00:05:00,
2013-03-21 17:15:00,58.8,37.6,30.03,NNW,332,4.0,8.7,45,0.00,,,-99.99,FreeWX-Wi 1.01,2013-03-22 00:15:00,
2013-03-21 17:25:00,58.3,37.0,30.03,NNW,332,4.0,8.1,45,0.00,,,-99.99,FreeWX-Wi 1.01,2013-03-22 00:25:00,
2013-03-21 17:35:00,58.1,37.4,30.03,NNW,338,4.0,11.0,46,0.00,,,-99.99,FreeWX-Wi 1.01,2013-03-22 00:35:00,
2013-03-21 17:45:00,57.9,37.8,30.03,NNW,344,4.0,8.1,47,0.00,,,-99.99,FreeWX-Wi 1.01,2013-03-22 00:45:00,
2013-03-21 17:55:00,57.7,37.6,30.03,North,351,3.0,7.6,47,0.00,,,-99.99,FreeWX-Wi 1.01,2013-03-22 00:55:00,
2013-03-21 18:05:00,57.4,37.9,30.03,NNW,343,4.0,8.3,48,0.00,,,-99.99,FreeWX-Wi 1.01,2013-03-22 01:05:00,
2013-03-21 18:15:00,57.0,39.0,30.03,NNW,336,4.0,10.1,51,0.00,,,-99.99,FreeWX-Wi 1.01,2013-03-22 01:15:00,
2013-03-21 18:25:00,56.3,39.4,30.03,NNW,333,4.0,9.2,53,0.00,,,-99.99,FreeWX-Wi 1.01,2013-03-22 01:25:00,
2013-03-21 18:35:00,55.8,39.4,30.03,NNW,332,4.0,8.7,54,0.00,,,-99.99,FreeWX-Wi 1.01,2013-03-22 01:35:00,
2013-03-21 18:46:00,55.4,39.9,30.03,NNW,334,4.0,11.0,56,0.00,,,-99.99,FreeWX-Wi 1.01,2013-03-22 01:46:00,
2013-03-21 18:56:00,54.9,40.3,30.03,NNW,338,4.0,10.1,58,0.00,,,-99.99,FreeWX-Wi 1.01,2013-03-22 01:56:00,
2013-03-21 19:06:00,54.5,40.5,30.03,NNW,336,4.0,8.3,59,0.00,,,-99.99,FreeWX-Wi 1.01,2013-03-22 02:06:00,
2013-03-21 19:16:00,54.3,40.8,30.03,NNW,336,4.0,7.6,60,0.00,,,-99.99,FreeWX-Wi 1.01,2013-03-22 02:16:00,
2013-03-21 19:26:00,54.1,41.0,30.03,NNW,344,4.0,7.6,61,0.00,,,-99.99,FreeWX-Wi 1.01,2013-03-22 02:26:00,
2013-03-21 19:36:00,54.0,40.8,30.03,North,9,3.0,7.6,61,0.00,,,-99.99,FreeWX-Wi 1.01,2013-03-22 02:36:00,
2013-03-21 19:46:00,53.8,41.0,30.03,NNE,21,3.0,6.3,62,0.00,,,-99.99,FreeWX-Wi 1.01,2013-03-22 02:46:00,
2013-03-21 19:56:00,53.4,41.2,30.03,North,5,3.0,7.6,63,0.00,,,-99.99,FreeWX-Wi 1.01,2013-03-22 02:56:00,
2013-03-21 20:06:00,53.1,41.2,30.03,NNW,339,4.0,8.3,64,0.00,,,-99.99,FreeWX-Wi 1.01,2013-03-22 03:06:00,
2013-03-21 20:16:00,53.1,41.2,30.03,NNW,335,4.0,6.3,64,0.00,,,-99.99,FreeWX-Wi 1.01,2013-03-22 03:16:00,
2013-03-21 20:26:00,52.9,41.0,30.03,NNW,333,3.0,6.3,64,0.00,,,-99.99,FreeWX-Wi 1.01,2013-03-22 03:26:00,
2013-03-21 20:36:00,52.7,41.2,30.03,NNW,332,3.0,8.1,65,0.00,,,-99.99,FreeWX-Wi 1.01,2013-03-22 03:36:00,
2013-03-21 20:46:00,52.5,41.5,30.03,NW,325,3.0,6.7,66,0.00,,,-99.99,FreeWX-Wi 1.01,2013-03-22 03:46:00,
2013-03-21 20:56:00,52.3,41.4,30.03,NW,325,2.0,5.4,66,0.00,,,-99.99,FreeWX-Wi 1.01,2013-03-22 03:56:00,
2013-03-21 21:06:00,52.3,41.4,30.03,NW,325,2.0,4.0,66,0.00,,,-99.99,FreeWX-Wi 1.01,2013-03-22 04:06:00,
2013-03-21 21:16:00,52.3,41.4,30.03,NNW,329,1.0,3.6,66,0.00,,,-99.99,FreeWX-Wi 1.01,2013-03-22 04:16:00,
2013-03-21 21:26:00,52.3,41.4,30.06,North,-999,0.0,0.0,66,0.00,,,-99.99,FreeWX-Wi 1.01,2013-03-22 04:26:00,
2013-03-21 21:36:00,52.2,41.2,30.06,North,-999,0.0,0.0,66,0.00,,,-99.99,FreeWX-Wi 1.01,2013-03-22 04:36:00,
2013-03-21 21:46:00,52.2,41.2,30.06,North,-999,0.0,3.6,66,0.00,,,-99.99,FreeWX-Wi 1.01,2013-03-22 04:46:00,
2013-03-21 21:56:00,52.2,41.2,30.06,North,-999,0.0,0.0,66,0.00,,,-99.99,FreeWX-Wi 1.01,2013-03-22 04:56:00,
2013-03-21 22:06:00,52.0,41.0,30.06,North,-999,0.0,0.0,66,0.00,,,-99.99,FreeWX-Wi 1.01,2013-03-22 05:06:00,
2013-03-21 22:16:00,52.0,41.0,30.06,North,-999,0.0,0.0,66,0.00,,,-99.99,FreeWX-Wi 1.01,2013-03-22 05:16:00,
2013-03-21 22:26:00,52.0,41.4,30.06,North,-999,0.0,3.6,67,0.00,,,-99.99,FreeWX-Wi 1.01,2013-03-22 05:26:00,
2013-03-21 22:36:00,51.8,41.2,30.06,North,-999,0.0,3.1,67,0.00,,,-99.99,FreeWX-Wi 1.01,2013-03-22 05:36:00,
2013-03-21 22:46:00,51.6,41.0,30.06,North,-999,0.0,0.0,67,0.00,,,-99.99,FreeWX-Wi 1.01,2013-03-22 05:46:00,
2013-03-21 22:56:00,51.6,41.4,30.06,North,-999,0.0,0.0,68,0.00,,,-99.99,FreeWX-Wi 1.01,2013-03-22 05:56:00,
2013-03-21 23:06:00,51.6,41.4,30.06,North,-999,0.0,4.0,68,0.00,,,-99.99,FreeWX-Wi 1.01,2013-03-22 06:06:00,
2013-03-21 23:16:00,51.6,41.7,30.06,North,-999,0.0,4.9,69,0.00,,,-99.99,FreeWX-Wi 1.01,2013-03-22 06:16:00,
2013-03-21 23:26:00,51.6,41.7,30.06,North,-999,0.0,0.0,69,0.00,,,-99.99,FreeWX-Wi 1.01,2013-03-22 06:26:00,
2013-03-21 23:36:00,51.6,41.7,30.06,North,-999,0.0,0.0,69,0.00,,,-99.99,FreeWX-Wi 1.01,2013-03-22 06:36:00,
2013-03-21 23:46:00,51.3,41.4,30.06,North,-999,0.0,0.0,69,0.00,,,-99.99,FreeWX-Wi 1.01,2013-03-22 06:46:00,
2013-03-21 23:56:00,51.1,41.2,30.06,North,-999,0.0,0.0,69,0.00,,,-99.99,FreeWX-Wi 1.01,2013-03-22 06:56:00,